Showing default

HULIANWANG DIGUI-06, 62328

Orbit data source: Space-Track

HULIANWANG DIGUI-06, 62328 is a payload satellite owned by Zhongguo Xingwang (CN) in LEO that was launched on Mon, 16 Dec 2024 UTC via a CHANG ZHENG 5B/YZ-2 launch vehicle from the Wenchang Satellite Launch Center (WSC). Payload-class satellites include a variety of spacecraft equipped with specific instruments for various scientific and technological missions. These include communications satellites like Starlink; space stations such as the ISS; scientific satellites like the Hubble; Earth observation satellites from companies like Planet Labs, Umbra, and HawkEye 360; GPS; miniature CubeSats for education and research; and military/defense satellites.

Loading next visibility...
Identifier
62328, 2024-240F
Orbit
LEO
Country
Flag of CNCN / PRC
Related business
Manufacturer
CAST?
Mission
Operational Civil Communications
Bus & Motor
GUOWANG C, Unknown motor
Mass
~800 kg wet, ~800 kg dry
Launch date (UTC)
2024-12-16 (10 months ago)
Launch vehicle
CHANG ZHENG 5B/YZ-2
Launch site
Wenchang Satellite Launch Center (WSC)
Object type
Payload
Rocket body
Debris
Shape & HBR
Box + 2 Pan, 5.0 m
Radar Cross Section
5.935 m², Large (>1 m²)

Expand to show TLE details & history
Last TLE update: 3 hours ago

TLE from 3 hours ago
0 HULIANWANG DIGUI-06
1 62328U 24240F   25291.35788887  .00000036  00000-0  50066-4 0  9996
2 62328  86.4943  64.7332 0001806 108.3224 251.8107 13.24413721 40632
Epoch: 2025-10-18T08:35Z
TLE epoch observation values (Epoch: 2025-10-18T08:35:21.598Z)
Latitude
0.00003°
Longitude
-91.19685°
Altitude
1,171.228 km
Speed
7.268 km/s
True Right ascension
04h 18m 55s
True Declination
0° 00' 00"
Sunlit
Object was in full shadow at epoch
Visualization orbit readout
Latitude
Unknown
Longitude
Unknown
Altitude
Unknown
Speed
Unknown
Apparent Right ascension
Unknown
Apparent Declination
Unknown
Sunlit
N/A
Visualization observer readout
Local Sidereal Time
06:05:03
Azimuth
Unknown
Elevation
Unknown
Doppler factor
Unknown
Orbital elements
Apogee altitude
1,166.39 km
Perigee altitude
1,163.666 km
Semi-major axis
7,543.165 km
Eccentricity
0.00018
Inclination
86.4943°
RAAN
64.7332°
Arg. of periapsis
108.3224°
True anomaly
251.79104°
Mean anomaly
251.8107°
Eccentric anomaly
251.80087°
Mean motion
3.31293 °/min
Orbital period
108.67 mins
BSTAR
0.000050066
Loading maneuver chart data...
Computing Atmospheric mass density...
Loading historical data...
Loading historical data...
Loading historical data...
Loading historical data...
Loading historical data...
Loading historical data...
Loading historical data...

Documentation

Showing up to 5 results
|